Regional Weather Roundup
Issued by NWS State College, PA

Home | Current Version | Previous Version | Graphics & Text | Print | Product List | Glossary On
Versions: 1 2 3 4 5 6 7 8 9 10 11 12 13 14 15 16 17 18 19 20 21 22 23 24 25 26 27 28 29 30 31 32 33 34 35 36 37 38 39 40 41 42 43 44 45 46 47 48 49 50
000
ASUS41 KCTP 241403
RWRCTP

REGIONAL WEATHER ROUNDUP
NATIONAL WEATHER SERVICE STATE COLLEGE PA
1000 AM EDT MON JUL 24 2017

Note: "fair" indicates few or no clouds below 12,000 feet with no
significant weather and/or obstructions to visibility.

* = STATION THAT DOES NOT REPORT PRECIPITATION /E.G. RAIN...SNOW...ETC/
    THUNDER OR FOG.

PAZ002>004-007>009-013>016-020>023-029>032-241500-
WESTERN PENNSYLVANIA

CITY           SKY/WX    TMP DP  RH WIND       PRES   REMARKS
ERIE           CLOUDY    71  63  75 W12       29.84R
MEADVILLE      CLOUDY    69  67  93 NW5       29.87R
FRANKLIN*      CLOUDY    72  64  78 W7        29.87S
NEW CASTLE     CLOUDY    70  68  93 NW5       29.88S
BEAVER COUNTY  NOT AVBL
BUTLER*        CLOUDY    72  66  83 SW5       29.88S
PITTSBURGH INT PTSUNNY   71  67  87 W6        29.87S
PITTSBURGH     CLOUDY    69  64  84 SW9       29.88R
INDIANA*       CLOUDY    70  68  94 W6        29.91S
LATROBE        CLOUDY    66  66 100 SW12      29.90R
WASHINGTON CO* CLOUDY    70  64  83 SW6       29.89S
$$

PAZ004>006-010>012-017>019-024>028-033>037-041-042-045-046-049>053-241500-
CENTRAL PENNSYLVANIA

CITY           SKY/WX    TMP DP  RH WIND       PRES   REMARKS
BRADFORD       PTSUNNY   70  65  84 W13G18    29.85F
DUBOIS         CLOUDY    69  66  90 SW8       29.86F
CLEARFIELD     CLOUDY    71  69  93 VRB6      29.86F
JOHNSTOWN      CLOUDY    66  65  96 W3        29.91S FOG
ALTOONA        MOSUNNY   73  67  81 W8        29.87S
STATE COLLEGE  CLOUDY    70  68  94 S6        29.85S
WILLIAMSPORT   MOSUNNY   74  68  81 W6        29.80S
SELINSGROVE    PTSUNNY   74  68  81 CALM      29.82S
FT INDIANTOWN  PTSUNNY   76  68  78 CALM      29.80S
CAPITAL CITY   MOSUNNY   76  66  71 N6        29.81S
HARRISBURG     MOSUNNY   76  69  79 NW8       29.80S
YORK           SUNNY     77  69  76 NW6       29.82R
$$

PAZ038>040-043-044-047-048-054-055-060>062-067>071-241500-
EASTERN PENNSYLVANIA

CITY           SKY/WX    TMP DP  RH WIND       PRES   REMARKS
SCRANTON       CLOUDY    69  64  84 VRB3      29.83R
MOUNT POCONO   CLOUDY    65  62  90 NE8       29.85R
ALLENTOWN      MOSUNNY   72  64  76 N10       29.79R
QUAKERTOWN*    PTSUNNY   72  68  88 NE5       29.79R
READING        MOSUNNY   76  71  85 NW9       29.78S
LANCASTER      PTSUNNY   77  70  79 N8        29.80R
COATESVILLE    MOSUNNY   75  70  83 N9G15     29.81R
POTTSTOWN      MOSUNNY   73  69  87 NW9       29.79R
BLUE BELL      CLOUDY    73  72  94 W6        29.77R
DOYLESTOWN     LGT RAIN  70  69  97 N8        29.76R
WILLOW GROVE   NOT AVBL
NORTH PHILA    CLOUDY    78  73  84 W8        29.76S
PHILADELPHIA   CLOUDY    76  72  87 SW13      29.75S
$$



USA.gov is the U.S. government's official web portal to all federal, state and local government web resources and services.